Time,TemperatureF,DewpointF,PressureIn,WindDirection,WindDirectionDegrees,WindSpeedMPH,WindSpeedGustMPH,Humidity,HourlyPrecipIn,Conditions,Clouds,dailyrainin,SoftwareType,DateUTC
2013-03-28 00:07:00,37.6,9.0,29.62,SSW,206,0.0,0.0,30,0.00,,,0.00,VWS V14.01,2013-03-28 04:07:00,
2013-03-28 00:21:00,36.5,8.8,29.62,SSW,206,0.0,0.0,31,0.00,,,0.00,VWS V14.01,2013-03-28 04:21:00,
2013-03-28 00:37:00,36.1,9.1,29.59,SSW,206,0.0,0.0,32,0.00,,,0.00,VWS V14.01,2013-03-28 04:37:00,
2013-03-28 00:52:00,35.8,9.5,29.59,SSW,206,0.0,0.0,33,0.00,,,0.00,VWS V14.01,2013-03-28 04:52:00,
2013-03-28 01:06:00,35.4,9.9,29.59,SSW,206,0.0,0.0,34,0.00,,,0.00,VWS V14.01,2013-03-28 05:06:00,
2013-03-28 01:22:00,34.9,10.0,29.59,SSW,206,0.0,0.0,35,0.00,,,0.00,VWS V14.01,2013-03-28 05:22:00,
2013-03-28 01:37:00,34.3,10.2,29.59,SSW,206,0.0,0.0,36,0.00,,,0.00,VWS V14.01,2013-03-28 05:37:00,
2013-03-28 01:51:00,34.2,11.2,29.59,SSW,206,0.0,0.0,38,0.00,,,0.00,VWS V14.01,2013-03-28 05:51:00,
2013-03-28 02:06:00,34.3,12.5,29.59,SSW,206,0.0,0.0,40,0.00,,,0.00,VWS V14.01,2013-03-28 06:06:00,
2013-03-28 02:21:00,34.0,12.2,29.59,SSW,206,0.0,0.0,40,0.00,,,0.00,VWS V14.01,2013-03-28 06:21:00,
2013-03-28 02:51:00,33.8,12.1,29.59,SSW,206,0.0,0.0,40,0.00,,,0.00,VWS V14.01,2013-03-28 06:51:00,
2013-03-28 03:06:00,34.0,12.8,29.59,SSW,206,0.0,0.0,41,0.00,,,0.00,VWS V14.01,2013-03-28 07:06:00,
2013-03-28 03:22:00,34.0,12.8,29.59,SSW,206,0.0,0.0,41,0.00,,,0.00,VWS V14.01,2013-03-28 07:22:00,
2013-03-28 03:36:00,34.2,12.9,29.59,SSW,206,0.0,0.0,41,0.00,,,0.00,VWS V14.01,2013-03-28 07:36:00,
2013-03-28 03:51:00,34.2,13.5,29.59,SSW,206,0.0,0.0,42,0.00,,,0.00,VWS V14.01,2013-03-28 07:51:00,
2013-03-28 04:06:00,34.3,13.6,29.59,SSW,206,0.0,0.0,42,0.00,,,0.00,VWS V14.01,2013-03-28 08:06:00,
2013-03-28 04:21:00,34.3,14.2,29.59,SSW,206,0.0,0.0,43,0.00,,,0.00,VWS V14.01,2013-03-28 08:21:00,
2013-03-28 04:37:00,34.3,14.2,29.59,SSW,206,0.0,0.0,43,0.00,,,0.00,VWS V14.01,2013-03-28 08:37:00,
2013-03-28 04:51:00,34.2,14.0,29.59,SSW,206,0.0,0.0,43,0.00,,,0.00,VWS V14.01,2013-03-28 08:51:00,
2013-03-28 05:06:00,33.6,14.1,29.59,SSW,206,0.0,0.0,44,0.00,,,0.00,VWS V14.01,2013-03-28 09:06:00,
2013-03-28 05:22:00,33.6,14.1,29.59,SSW,206,0.0,0.0,44,0.00,,,0.00,VWS V14.01,2013-03-28 09:22:00,
2013-03-28 05:36:00,33.6,14.1,29.59,SSW,206,0.0,0.0,44,0.00,,,0.00,VWS V14.01,2013-03-28 09:36:00,
2013-03-28 05:52:00,33.3,14.2,29.59,SSW,206,0.0,0.0,45,0.00,,,0.00,VWS V14.01,2013-03-28 09:52:00,
2013-03-28 06:07:00,32.7,13.2,29.59,SSW,206,0.0,0.0,44,0.00,,,0.00,VWS V14.01,2013-03-28 10:07:00,
2013-03-28 06:22:00,32.5,13.6,29.59,SSW,206,0.0,0.0,45,0.00,,,0.00,VWS V14.01,2013-03-28 10:22:00,
2013-03-28 06:52:00,32.4,12.9,29.59,SSW,206,0.0,0.0,44,0.00,,,0.00,VWS V14.01,2013-03-28 10:52:00,
2013-03-28 07:07:00,32.0,12.6,29.62,SSW,206,0.0,0.0,44,0.00,,,0.00,VWS V14.01,2013-03-28 11:07:00,
2013-03-28 07:21:00,31.8,12.4,29.62,SSW,206,0.0,0.0,44,0.00,,,0.00,VWS V14.01,2013-03-28 11:21:00,
2013-03-28 07:37:00,31.8,12.4,29.62,SSW,206,0.0,0.0,44,0.00,,,0.00,VWS V14.01,2013-03-28 11:37:00,
2013-03-28 07:51:00,31.6,12.2,29.62,SSW,206,0.0,0.0,44,0.00,,,0.00,VWS V14.01,2013-03-28 11:51:00,
2013-03-28 08:06:00,32.0,12.6,29.62,SSW,206,0.0,0.0,44,0.00,,,0.00,VWS V14.01,2013-03-28 12:06:00,
2013-03-28 08:21:00,32.5,13.6,29.62,SSW,206,0.0,0.0,45,0.00,,,0.00,VWS V14.01,2013-03-28 12:21:00,
2013-03-28 08:37:00,34.9,16.7,29.65,SSW,206,0.0,0.0,47,0.00,,,0.00,VWS V14.01,2013-03-28 12:37:00,
2013-03-28 08:51:00,35.2,15.5,29.62,SSW,206,0.0,0.0,44,0.00,,,0.00,VWS V14.01,2013-03-28 12:51:00,
2013-03-28 09:06:00,35.8,14.9,29.65,SSW,207,0.0,0.0,42,0.00,,,0.00,VWS V14.01,2013-03-28 13:06:00,
2013-03-28 09:22:00,37.6,9.7,29.65,East,90,0.0,3.1,31,0.00,,,0.00,VWS V14.01,2013-03-28 13:22:00,
2013-03-28 09:37:00,38.7,9.2,29.65,SE,130,6.3,8.1,29,0.00,,,0.00,VWS V14.01,2013-03-28 13:37:00,
2013-03-28 09:52:00,39.9,7.8,29.65,ESE,118,4.0,6.3,26,0.00,,,0.00,VWS V14.01,2013-03-28 13:52:00,
2013-03-28 10:07:00,40.6,8.4,29.65,South,182,4.0,6.3,26,0.00,,,0.00,VWS V14.01,2013-03-28 14:07:00,
2013-03-28 10:22:00,41.5,6.5,29.65,SSE,167,6.3,6.3,23,0.00,,,0.00,VWS V14.01,2013-03-28 14:22:00,
2013-03-28 10:37:00,42.4,7.3,29.62,East,91,0.0,6.3,23,0.00,,,0.00,VWS V14.01,2013-03-28 14:37:00,
2013-03-28 10:51:00,43.3,8.0,29.62,South,169,3.1,5.4,23,0.00,,,0.00,VWS V14.01,2013-03-28 14:51:00,
2013-03-28 11:06:00,43.9,8.5,29.62,SSW,196,4.0,5.8,23,0.00,,,0.00,VWS V14.01,2013-03-28 15:06:00,
2013-03-28 11:21:00,45.0,8.4,29.62,East,84,2.7,4.0,22,0.00,,,0.00,VWS V14.01,2013-03-28 15:21:00,
2013-03-28 11:36:00,45.0,8.4,29.65,South,169,5.8,6.7,22,0.00,,,0.00,VWS V14.01,2013-03-28 15:36:00,
2013-03-28 11:51:00,46.0,9.3,29.62,ENE,58,2.7,6.3,22,0.00,,,0.00,VWS V14.01,2013-03-28 15:51:00,
2013-03-28 12:22:00,46.2,9.5,29.62,SE,134,0.0,4.9,22,0.00,,,0.00,VWS V14.01,2013-03-28 16:22:00,
2013-03-28 12:36:00,46.0,9.3,29.62,South,183,3.1,4.0,22,0.00,,,0.00,VWS V14.01,2013-03-28 16:36:00,
2013-03-28 12:51:00,47.5,10.6,29.62,South,187,3.6,5.4,22,0.00,,,0.00,VWS V14.01,2013-03-28 16:51:00,
2013-03-28 13:21:00,46.8,9.9,29.62,East,87,3.1,5.4,22,0.00,,,0.00,VWS V14.01,2013-03-28 17:21:00,
2013-03-28 13:36:00,47.7,10.7,29.59,WSW,256,4.0,4.9,22,0.00,,,0.00,VWS V14.01,2013-03-28 17:36:00,
2013-03-28 13:52:00,48.4,10.3,29.59,ESE,117,5.4,5.4,21,0.00,,,0.00,VWS V14.01,2013-03-28 17:52:00,
2013-03-28 14:06:00,48.2,10.1,29.59,NNW,348,0.0,5.4,21,0.00,,,0.00,VWS V14.01,2013-03-28 18:06:00,
2013-03-28 14:21:00,48.4,10.3,29.59,NNE,25,0.0,5.4,21,0.00,,,0.00,VWS V14.01,2013-03-28 18:21:00,
2013-03-28 14:37:00,49.5,11.2,29.59,SSW,208,4.9,4.9,21,0.00,,,0.00,VWS V14.01,2013-03-28 18:37:00,
2013-03-28 14:51:00,50.0,11.6,29.59,East,80,7.6,7.6,21,0.00,,,0.00,VWS V14.01,2013-03-28 18:51:00,
2013-03-28 15:06:00,49.1,10.9,29.59,SSE,162,4.0,7.6,21,0.00,,,0.00,VWS V14.01,2013-03-28 19:06:00,
2013-03-28 15:21:00,48.7,10.6,29.59,NW,325,0.0,5.8,21,0.00,,,0.00,VWS V14.01,2013-03-28 19:21:00,
2013-03-28 15:52:00,48.7,10.6,29.59,SW,232,2.7,4.0,21,0.00,,,0.00,VWS V14.01,2013-03-28 19:52:00,
2013-03-28 16:06:00,48.9,10.7,29.59,SE,141,3.1,3.6,21,0.00,,,0.00,VWS V14.01,2013-03-28 20:06:00,
2013-03-28 16:22:00,48.9,10.7,29.59,NNW,341,0.0,4.0,21,0.00,,,0.00,VWS V14.01,2013-03-28 20:22:00,
2013-03-28 16:37:00,48.9,10.7,29.59,ENE,71,0.0,4.0,21,0.00,,,0.00,VWS V14.01,2013-03-28 20:37:00,
2013-03-28 16:51:00,48.9,10.7,29.59,ENE,71,0.0,6.3,21,0.00,,,0.00,VWS V14.01,2013-03-28 20:51:00,
2013-03-28 17:07:00,48.9,10.7,29.59,South,183,0.0,6.3,21,0.00,,,0.00,VWS V14.01,2013-03-28 21:07:00,
2013-03-28 17:22:00,49.1,10.9,29.59,ESE,114,3.6,8.7,21,0.00,,,0.00,VWS V14.01,2013-03-28 21:22:00,
2013-03-28 17:37:00,49.3,11.0,29.56,ENE,62,0.0,5.4,21,0.00,,,0.00,VWS V14.01,2013-03-28 21:37:00,
2013-03-28 17:51:00,49.3,11.0,29.56,North,0,0.0,4.9,21,0.00,,,0.00,VWS V14.01,2013-03-28 21:51:00,
2013-03-28 18:06:00,49.5,11.2,29.59,East,81,0.0,2.7,21,0.00,,,0.00,VWS V14.01,2013-03-28 22:06:00,
2013-03-28 18:21:00,49.3,11.0,29.59,NNW,331,6.3,6.3,21,0.00,,,0.00,VWS V14.01,2013-03-28 22:21:00,
2013-03-28 18:37:00,48.9,10.7,29.59,North,357,0.0,6.3,21,0.00,,,0.00,VWS V14.01,2013-03-28 22:37:00,
2013-03-28 18:51:00,48.9,10.7,29.59,WNW,287,3.6,4.9,21,0.00,,,0.00,VWS V14.01,2013-03-28 22:51:00,
2013-03-28 19:07:00,49.1,10.9,29.59,SE,129,0.0,4.0,21,0.00,,,0.00,VWS V14.01,2013-03-28 23:07:00,
2013-03-28 19:21:00,48.6,10.4,29.59,SE,129,0.0,0.0,21,0.00,,,0.00,VWS V14.01,2013-03-28 23:21:00,
2013-03-28 19:36:00,46.9,10.1,29.59,SE,129,0.0,0.0,22,0.00,,,0.00,VWS V14.01,2013-03-28 23:36:00,
2013-03-28 19:52:00,46.6,9.8,29.59,SE,129,0.0,0.0,22,0.00,,,0.00,VWS V14.01,2013-03-28 23:52:00,
2013-03-28 20:06:00,45.0,8.4,29.59,SSE,166,0.0,0.0,22,0.00,,,0.00,VWS V14.01,2013-03-29 00:06:00,
2013-03-28 20:21:00,44.4,8.9,29.59,WSW,252,0.0,0.0,23,0.00,,,0.00,VWS V14.01,2013-03-29 00:21:00,
2013-03-28 20:36:00,43.3,8.0,29.59,WSW,252,0.0,0.0,23,0.00,,,0.00,VWS V14.01,2013-03-29 00:36:00,
2013-03-28 20:51:00,42.8,7.6,29.62,WSW,252,0.0,0.0,23,0.00,,,0.00,VWS V14.01,2013-03-29 00:51:00,
2013-03-28 21:07:00,42.1,7.0,29.62,WSW,252,0.0,0.0,23,0.00,,,0.00,VWS V14.01,2013-03-29 01:07:00,
2013-03-28 21:22:00,40.8,5.9,29.62,WSW,252,0.0,0.0,23,0.00,,,0.00,VWS V14.01,2013-03-29 01:22:00,
2013-03-28 21:37:00,40.3,5.4,29.62,WSW,252,0.0,0.0,23,0.00,,,0.00,VWS V14.01,2013-03-29 01:37:00,
2013-03-28 21:52:00,39.4,4.7,29.62,WSW,252,0.0,0.0,23,0.00,,,0.00,VWS V14.01,2013-03-29 01:52:00,
2013-03-28 22:06:00,38.8,5.2,29.62,WSW,252,0.0,0.0,24,0.00,,,0.00,VWS V14.01,2013-03-29 02:06:00,
2013-03-28 22:21:00,38.3,4.7,29.65,WSW,252,0.0,0.0,24,0.00,,,0.00,VWS V14.01,2013-03-29 02:21:00,
2013-03-28 22:37:00,37.6,5.8,29.65,WSW,252,0.0,0.0,26,0.00,,,0.00,VWS V14.01,2013-03-29 02:37:00,
2013-03-28 22:51:00,37.0,6.2,29.65,WSW,252,0.0,0.0,27,0.00,,,0.00,VWS V14.01,2013-03-29 02:51:00,
2013-03-28 23:06:00,36.3,5.6,29.65,WSW,252,0.0,0.0,27,0.00,,,0.00,VWS V14.01,2013-03-29 03:06:00,
2013-03-28 23:22:00,35.6,4.9,29.65,WSW,252,0.0,0.0,27,0.00,,,0.00,VWS V14.01,2013-03-29 03:22:00,
2013-03-28 23:37:00,35.4,7.1,29.65,WSW,252,0.0,0.0,30,0.00,,,0.00,VWS V14.01,2013-03-29 03:37:00,
2013-03-28 23:52:00,34.9,6.6,29.65,WSW,252,0.0,0.0,30,0.00,,,0.00,VWS V14.01,2013-03-29 03:52:00,